SCP
0 0 0 0 0 0 0 0 0 0 0 0 0 0 0 0 0 0 0 0 0 0 0 0 0 0 0 0 0 0 0 0 0 0 0 0 0 0 0 0 -0 -0 -0 -0 -0 -0 0 0 0
0 0 0 0 0 0 0 0 0 0 0 0 0 0 0 0 0 0 0 0 0 0 0 0 0 0 0 0 0 0 0 0 0 0 0 0 0 0 0 0 -0 -0 -0 -0 -0 -0 0 0 0
0 0 0 0 0 0 0 0 0 0 0 0 0 0 0 -0 -0 0 0 0 0 0 0 0 0 0 0 0 0 0 0 0 0 0 0 0 0 0 0 0 -0 -0 -0 -0 -0 -0 -0 0 0
0 0 0 0 0 0 0 0 0 -0 -0 0 0 0 0 -0 -0 0 0 0 0 0 0 0 0 0 0 0 0 0 0 0 0 0 0 0 0 0 0 0 0 -0 -0 -0 -0 -0 -0 0 0
0 0 0 0 0 0 0 0 -0 -0 -0 -0 -0 0 0 0 0 0 0 0 0 0 0 0 0 0 0 0 0 0 0 0 0 0 0 0 0 0 0 0 0 0 0 -0 0 0 0 0 0
0 0 0 0 0 0 0 0 0 -0 -0 -0 -0 0 0 0 0 0 0 0 0 0 0 0 0 0 0 0 0 0 0 0 0 0 0 0 0 0 0 0 0 0 0 0 0 0 0 0 0
0 0 0 0 0 0 0 0 0 -0 -0 -0 -0 0 0 0 0 0 0 0 0 0 0 0 0 0 0 0 0 0 0 0 0 0 0 0 0 0 0 0 0 0 0 0 0 0 0 0 0
0 0 0 0 0 -0 0 0 0 0 0 0 0 0 0 0 0 0 0 0 0 0 0 0 0 0 0 0 0 0 0 0 0 0 0 0 0 0 0 0 0 0 0 0 0 0 0 0 0
0 0 0 0 0 0 0 0 0 0 0 0 0 0 0 0 0 0 0 0 0 0 0 0 0 0 0 0 0 0 0 0 0 0 0 0 0 0 0 0 0 0 0 0 0 0 0 0 0
0 0 0 0 0 0 0 0 0 0 0 0 0 0 0 1 1 1 1 0 0 0 0 0 0 0 0 0 0 0 0 0 0 0 0 0 0 0 0 0 0 0 0 0 0 0 0 0 0
0 0 0 0 0 0 0 0 0 0 0 0 0 0 0 1 1 1 1 0 0 0 0 0 0 0 0 0 0 0 0 0 0 0 0 0 0 0 0 0 0 0 0 0 0 0 0 0 0
0 0 0 0 0 0 0 0 0 0 0 0 0 0 1 1 1 1 1 1 0 0 0 0 0 0 0 0 0 0 0 0 0 0 0 0 0 0 0 0 0 0 0 0 0 0 0 0 0
0 0 0 0 0 0 0 0 0 0 0 0 0 0 1 1 1 1 1 1 0 0 0 0 0 0 0 0 0 0 0 0 0 0 0 0 0 0 0 0 0 0 0 0 0 0 0 0 0
0 0 0 0 0 0 0 0 0 0 0 0 0 1 1 1 1 1 1 1 1 1 0 0 0 1 1 1 1 0 0 0 0 1 1 1 1 1 1 1 0 0 0 0 0 0 0 0 0
0 0 0 0 0 0 0 0 0 0 0 0 0 1 1 1 1 1 1 1 1 1 1 1 1 1 1 1 1 1 1 1 1 1 1 1 1 1 1 1 1 1 0 0 0 0 0 0 0
0 0 0 0 0 0 0 0 0 0 0 0 1 1 1 1 1 1 1 1 1 1 1 1 1 1 1 1 1 1 1 1 1 1 2 1 1 1 1 1 1 1 1 1 1 0 0 0 0
0 0 0 0 0 0 0 0 0 0 0 1 1 1 1 1 1 1 1 1 1 1 2 2 2 2 2 2 2 2 2 2 2 2 2 2 2 2 1 1 1 1 1 1 1 1 1 1 1
0 0 0 0 0 0 0 0 0 1 1 1 1 1 2 2 2 1 1 1 1 2 2 2 2 3 3 3 3 2 2 2 2 2 2 2 2 2 2 2 1 1 1 1 1 1 1 1 1
0 0 0 0 0 0 0 0 0 1 1 1 1 2 2 2 2 1 1 1 1 2 2 2 3 3 4 4 4 4 3 3 3 3 3 2 2 2 2 2 2 1 1 1 1 1 1 1 1
0 0 0 0 0 0 0 0 0 1 1 1 1 2 2 2 2 2 1 1 1 1 2 2 3 3 4 4 5 5 4 4 4 3 3 2 2 2 2 2 1 1 1 1 1 1 1 0 0
0 0 0 0 0 0 0 0 0 0 0 1 1 1 1 1 1 1 1 1 1 2 2 2 3 3 4 4 5 5 5 4 4 4 3 2 2 2 1 1 1 1 1 1 1 1 0 0 0
0 0 0 0 0 0 0 0 0 0 0 0 0 1 1 1 1 1 1 1 2 2 2 2 3 3 3 4 4 4 4 4 4 4 3 2 2 1 1 1 1 1 1 1 0 0 0 0 0
0 0 0 0 0 0 0 0 0 0 0 0 0 0 0 0 1 1 1 1 1 1 2 2 2 3 3 3 3 4 4 4 3 3 2 2 1 1 1 0 0 0 0 0 0 0 0 0 0
0 0 0 0 0 0 0 0 0 0 0 0 0 0 0 0 0 0 0 1 1 1 1 1 2 2 2 3 3 3 3 3 3 2 2 1 1 1 0 0 0 0 0 0 0 0 0 0 0
0 0 0 0 0 0 0 0 0 0 0 0 0 0 0 0 0 0 0 0 0 0 1 1 1 1 2 2 2 2 2 2 2 2 2 1 1 1 0 0 0 0 0 0 0 0 0 0 0
0 0 0 0 0 0 0 0 0 0 0 0 0 0 0 0 0 0 0 0 0 0 0 0 1 1 1 1 2 2 2 2 2 2 1 1 1 1 0 0 0 0 0 0 0 0 0 0 0
0 0 0 0 0 0 0 0 0 0 0 0 0 0 0 0 0 0 0 0 0 0 0 0 0 1 1 1 1 1 1 1 1 1 1 1 1 0 0 0 0 0 0 0 0 0 0 0 0
0 0 0 0 0 0 0 0 0 0 0 0 0 0 0 0 0 0 0 0 0 0 0 0 0 1 1 1 1 1 1 1 1 1 1 0 0 0 0 0 0 0 0 0 0 0 0 0 0
0 0 0 0 0 0 0 0 0 0 0 0 0 0 0 0 0 0 0 0 0 0 0 0 0 0 0 1 1 1 0 0 0 0 0 0 0 0 0 0 0 0 0 0 0 0 0 0 0
0 0 0 0 0 0 0 0 0 0 0 0 0 0 0 0 0 0 0 0 0 0 0 0 0 0 0 0 0 0 0 0 0 0 0 0 0 0 0 0 0 0 0 0 0 0 0 0 0
Wind_Speed
10 9 7 5 8 3 9 7 5 4 4 2 4 1 1 2 4 6 7 16 16 18 19 20 17 16 15 14 14 13 13 12 12 11 11 10 10 9 8 7 7 6 5 5 5 5 6 5 5
6 6 7 8 7 4 9 6 6 6 5 3 4 1 2 2 5 6 11 16 18 18 18 18 18 16 15 14 14 13 12 12 11 10 10 9 9 9 8 7 6 6 5 4 4 4 4 4 4
6 8 7 6 3 7 7 6 5 6 4 1 1 1 3 4 4 7 12 17 17 16 16 17 19 17 15 14 14 13 12 11 10 10 9 9 9 8 8 7 6 5 5 4 3 3 3 3 4
6 7 8 5 5 8 5 4 2 4 2 1 2 1 3 5 3 8 15 17 17 16 16 18 18 17 15 14 13 12 11 11 10 9 8 8 8 8 7 7 6 5 4 4 3 3 3 3 3
7 7 7 2 5 6 5 4 1 1 1 1 1 1 4 5 6 13 16 16 16 16 15 18 18 16 15 14 13 12 11 10 9 9 8 7 7 7 6 6 5 5 4 4 3 3 4 4 4
6 6 6 1 6 5 6 4 2 2 0 2 1 2 6 7 10 14 15 14 15 15 15 17 17 15 14 13 12 12 11 10 9 9 8 8 7 6 6 6 6 5 5 4 4 5 5 5 5
7 7 4 1 3 4 6 5 2 3 3 0 1 1 7 10 11 13 13 13 13 14 13 14 16 15 14 12 12 12 11 10 9 9 8 8 8 8 7 7 6 6 6 6 6 6 6 7 7
6 7 6 4 2 4 6 4 2 4 1 2 4 2 5 14 14 13 13 12 12 12 12 13 14 14 14 14 13 12 11 11 10 9 9 9 9 10 9 10 9 8 7 7 8 8 9 9 9
5 8 7 3 1 2 4 5 3 1 3 4 5 2 4 17 17 15 13 13 12 11 11 12 13 12 12 12 13 14 12 11 11 11 11 10 10 11 11 11 7 7 9 9 10 11 11 11 13
7 9 3 2 3 5 5 5 5 3 5 6 7 5 7 18 18 16 15 15 15 14 13 11 11 12 12 9 10 10 11 11 11 9 10 10 8 6 7 5 6 9 10 11 13 12 12 13 10
6 6 2 4 5 7 8 6 4 6 5 4 6 9 13 18 18 17 16 15 14 14 13 12 10 10 11 8 8 7 7 7 10 11 9 8 6 6 7 5 8 9 11 10 8 9 8 7 6
5 4 5 6 6 9 9 9 7 7 6 4 4 7 16 20 19 18 16 14 14 14 14 13 11 10 10 9 7 7 7 6 7 9 10 8 6 6 5 4 6 5 5 5 6 5 7 8 9
6 5 5 7 9 9 10 10 8 7 6 3 3 10 16 18 18 16 15 14 13 13 13 12 12 11 10 9 7 8 8 7 8 7 8 9 7 7 6 5 5 7 6 6 6 7 7 8 9
2 6 8 9 8 6 8 8 7 5 5 3 4 9 13 15 16 15 14 13 13 13 13 12 13 12 11 9 9 8 8 7 8 8 9 9 8 6 6 6 6 7 7 6 6 8 8 8 7
4 8 9 6 5 4 7 10 4 6 5 4 5 6 9 11 12 13 12 12 12 12 12 12 12 12 12 12 12 9 9 9 9 8 9 9 10 8 7 8 7 7 7 7 7 9 8 8 8
6 8 7 4 2 2 9 10 5 7 4 5 3 4 5 7 9 9 10 10 10 10 10 11 10 12 12 11 10 9 9 9 8 7 8 10 10 10 8 8 8 7 7 7 7 8 8 8 8
7 6 3 3 2 2 6 4 6 8 4 3 3 3 3 4 6 7 8 9 10 10 9 10 10 11 11 12 10 10 8 8 7 7 7 7 9 9 8 7 7 8 7 7 8 7 7 8 9
1 3 4 3 2 3 4 2 5 7 6 4 3 2 2 2 2 4 6 7 8 9 9 10 10 10 10 9 8 8 9 8 7 6 6 7 6 7 6 7 8 8 7 6 7 8 8 8 9
2 4 4 0 2 4 3 3 3 6 6 6 5 4 3 2 1 1 3 5 7 8 9 10 10 10 9 8 8 8 9 8 7 6 7 6 5 4 3 6 6 6 6 7 8 8 9 9 8
4 4 3 3 0 5 5 5 1 3 5 6 7 7 6 4 3 2 1 2 4 6 8 9 11 11 11 10 8 7 7 7 7 6 5 5 5 4 4 5 5 6 6 7 7 7 7 7 6
2 3 3 5 5 8 9 10 8 5 3 5 6 7 7 7 6 5 4 3 3 4 6 7 8 9 11 11 8 6 5 6 6 7 6 7 6 5 5 5 5 5 6 6 6 6 8 7 7
3 2 6 8 11 10 7 12 8 7 5 4 5 7 7 7 7 7 6 5 5 5 5 6 7 7 8 10 10 12 10 10 10 7 6 6 6 6 5 6 6 6 5 5 6 6 5 7 7
6 5 9 12 14 15 14 14 9 7 7 3 5 6 7 7 7 7 7 7 7 7 6 6 6 6 7 9 10 11 11 10 6 6 7 7 6 6 6 6 5 5 5 5 5 4 5 5 6
5 8 11 11 12 15 10 11 10 4 4 3 3 4 6 6 7 6 6 6 6 7 7 6 6 7 7 7 8 10 11 10 8 8 7 7 5 5 6 5 5 5 4 5 5 5 5 4 5
6 9 8 7 8 5 2 8 6 5 4 1 1 3 5 6 7 8 8 8 8 8 8 7 7 7 7 8 8 8 9 9 10 9 8 7 6 5 6 5 5 5 5 5 4 5 4 3 4
5 8 8 8 9 11 9 9 2 4 3 3 4 5 6 7 7 8 9 9 9 9 9 8 8 8 8 7 6 5 5 5 5 7 6 6 5 5 5 5 5 5 5 5 4 4 3 2 2
6 6 7 10 14 13 8 5 3 5 6 7 7 8 8 8 8 9 10 10 10 10 9 9 9 8 7 6 5 4 2 2 2 2 3 4 4 4 5 5 5 5 5 4 4 3 2 2 2
6 7 6 7 8 10 9 9 4 5 6 6 7 8 8 8 9 9 9 9 9 9 8 7 7 7 6 5 3 1 1 1 1 2 2 2 4 4 4 5 4 4 4 4 4 3 2 1 1
5 6 7 8 8 10 11 7 3 4 6 7 9 9 8 8 9 9 8 8 8 7 6 5 5 5 3 2 1 1 2 2 2 2 3 2 2 3 4 4 4 4 3 3 2 1 2 2 4
8 9 9 10 11 11 13 11 2 5 6 9 11 11 9 8 8 8 7 7 6 6 4 3 3 2 1 1 2 3 2 3 2 2 2 1 1 2 3 4 4 4 3 3 3 4 5 6 6
Wind_Direction
193 202 219 232 241 212 64 53 39 63 89 85 142 203 312 336 339 46 113 151 147 146 147 157 161 159 153 146 141 138 137 137 139 143 147 149 151 152 154 155 154 147 132 120 114 112 110 110 112
220 207 225 241 268 80 72 44 47 41 63 99 137 241 292 63 49 97 140 148 151 149 152 160 159 162 157 152 148 145 144 143 143 146 150 154 156 157 158 158 157 153 143 133 127 124 124 126 127
227 227 257 259 356 41 59 47 63 87 86 91 143 318 342 34 97 136 142 152 154 152 156 152 161 164 160 156 153 151 150 148 147 150 155 160 163 163 162 160 160 160 156 150 143 136 136 146 155
231 229 241 264 65 54 28 31 107 130 104 61 267 135 79 48 122 139 144 157 157 158 160 150 166 166 163 161 158 157 155 154 153 155 159 164 167 169 167 167 169 172 175 178 179 178 175 177 185
245 261 253 201 76 62 41 23 172 193 60 81 259 49 87 91 121 138 152 160 163 163 160 154 168 168 167 166 164 163 162 161 161 162 165 168 171 174 175 178 183 188 197 206 208 208 210 207 214
249 255 256 146 94 80 52 38 236 267 74 142 191 129 98 120 143 152 157 166 167 164 163 151 168 172 172 172 171 171 171 172 173 174 175 178 181 185 189 193 197 203 209 217 222 224 227 228 231
276 273 266 243 116 95 37 4 289 285 271 277 172 164 122 151 154 157 158 172 170 168 165 159 169 176 179 180 181 180 181 183 186 188 189 192 195 199 204 207 213 220 227 233 236 237 238 239 238
290 272 235 205 182 91 29 4 352 284 248 116 183 222 148 162 160 163 165 173 172 173 172 171 173 177 182 183 186 189 190 193 196 201 204 205 208 212 213 217 209 226 242 249 251 250 248 246 244
258 255 236 198 218 78 21 349 20 14 143 179 209 274 90 152 162 167 169 175 178 182 182 183 175 180 188 191 177 189 196 200 205 207 209 216 223 214 203 218 189 229 249 256 258 257 254 252 240
239 249 254 22 319 327 337 330 337 232 207 208 203 166 144 155 168 175 180 183 183 186 187 191 184 184 192 196 176 199 201 196 213 216 207 215 225 240 243 152 203 242 253 259 255 257 255 248 251
237 262 297 256 294 308 307 315 303 275 254 234 221 184 169 171 177 184 189 191 187 189 189 191 191 195 198 197 193 203 209 202 212 220 220 231 236 227 232 224 205 221 234 246 242 241 253 259 262
238 236 266 282 301 296 301 303 296 278 302 347 276 188 177 183 187 190 191 193 188 194 195 191 192 197 210 213 204 210 215 210 220 210 221 223 225 241 243 244 254 244 236 244 265 263 261 269 274
231 247 254 267 273 282 285 278 287 287 317 311 240 184 188 190 191 193 192 193 192 195 199 196 195 200 206 217 225 221 226 224 221 229 218 235 236 233 236 243 251 258 256 248 249 266 278 280 272
270 277 264 261 266 258 261 263 256 291 327 288 215 197 198 197 194 192 193 193 195 199 200 199 199 203 207 214 221 229 232 226 241 228 227 225 237 239 242 239 242 253 259 267 278 277 277 273 279
268 266 253 235 244 231 258 241 244 341 311 269 233 213 207 202 200 199 196 198 200 201 201 201 203 206 207 217 223 229 232 229 230 230 228 229 235 235 241 250 248 252 260 262 262 271 274 271 270
238 242 236 144 222 192 250 241 60 349 305 278 261 233 219 205 211 208 203 205 209 208 204 206 210 207 210 218 227 235 237 237 234 235 230 229 240 244 247 255 256 257 258 261 263 264 269 271 274
215 236 243 179 137 274 258 274 30 356 333 302 291 267 244 216 217 219 219 214 213 214 213 213 216 217 215 218 222 235 241 244 243 240 241 240 246 252 252 259 267 267 261 260 265 266 270 274 276
244 258 235 241 63 283 261 306 16 12 8 1 346 328 301 265 241 231 231 234 225 219 218 218 215 218 217 217 221 231 236 237 238 242 246 250 253 259 260 261 266 271 267 265 263 270 267 271 275
291 269 258 350 4 283 275 296 14 19 21 29 23 12 5 338 308 248 235 233 228 222 221 220 223 216 213 215 217 219 225 229 233 237 245 249 251 254 258 269 269 269 268 271 273 272 272 269 275
223 243 233 186 252 289 282 270 134 46 43 36 33 29 23 20 29 18 310 250 239 231 230 229 225 222 219 220 220 226 232 235 228 224 223 226 234 239 240 252 261 268 275 269 269 272 280 283 278
203 282 315 304 287 243 267 253 190 157 114 81 66 55 45 32 19 10 358 334 296 269 257 251 245 238 235 232 227 226 225 231 226 220 217 216 212 210 212 221 241 252 258 262 269 271 268 279 281
262 345 300 288 282 280 275 285 251 181 167 109 73 62 53 40 28 17 4 353 336 317 301 289 277 266 257 246 237 230 228 231 229 221 214 204 203 206 203 210 222 233 244 254 258 265 275 272 276
317 318 289 285 280 278 265 266 271 178 207 136 76 57 45 34 24 16 6 354 345 333 321 306 293 281 267 257 249 243 242 240 232 215 207 205 199 199 201 200 214 224 236 249 262 266 266 268 274
294 274 267 257 261 264 271 277 278 205 195 143 85 47 28 16 7 3 353 345 340 334 326 313 301 290 278 266 257 249 246 241 230 214 204 198 189 185 196 193 205 222 233 234 243 253 252 271 286
282 299 290 265 244 273 35 280 281 91 136 157 353 349 349 346 341 339 337 337 332 328 326 316 306 296 289 278 268 261 255 246 236 219 205 196 185 184 187 190 199 212 222 235 247 245 264 267 282
322 305 306 306 305 310 292 265 325 127 177 216 258 283 296 303 311 316 318 320 319 318 317 313 307 300 296 287 279 274 266 257 243 220 205 191 183 177 177 187 199 211 221 232 239 249 241 258 282
298 296 324 290 281 279 270 260 244 181 217 234 252 265 276 288 299 302 306 311 312 311 311 310 306 303 299 290 277 263 251 253 245 192 185 175 162 159 171 184 197 207 215 227 238 237 241 249 280
296 311 274 277 293 290 281 275 264 191 235 256 272 283 289 290 293 300 303 305 309 308 308 308 306 304 304 301 284 225 152 136 145 133 119 134 142 148 167 180 188 196 202 212 231 212 170 200 49
257 257 278 285 283 288 293 301 24 280 281 291 299 302 296 294 299 303 304 305 305 302 302 307 310 310 321 328 4 61 83 89 94 94 96 105 142 165 176 175 181 183 182 185 198 165 138 100 72
275 276 269 273 278 266 275 286 319 259 272 287 294 297 295 293 298 302 303 302 299 296 298 303 325 346 13 39 82 79 73 90 108 113 100 116 138 170 165 162 159 156 148 145 132 105 90 84 76